Weather in Verkhniye Sergi

Russia / Sverdlovsk Oblast     56°38′58″N   59°33′36″E
В апреле 2022 года жителям России запретили посещать сайт meteo.paraplan.net по решению Генеральной прокуратуры. Аудитория сайта уменьшилась в 10 раз. Владельцы сайта не видят смысла в поддержке погодного сервера в таких условиях. Сайт будет закрыт в октябре.
temp.,
°C
wind,
m/s
gust,
m/s
humid.,
%
clouds,
%
prec.,
mm/h
press.,
hPa
HPBL,
m
4 october, tue
tue423:00+9sw4125554 0.2 1027437
02:00+7sw3126299 0.0 1028308
05:00+7sw3126239 0.0 1030300
08:00+6sw2106554 0.0 1031243
11:00+12sw364544 0.0 1031393
14:00+15sw35405 0.0 1031643
17:00+14sw24505 0.0 1031156
20:00+8sw11685 0.0 103210
5 october, wed
wed523:00+7ssw22761 0.0 103210
02:00+6sw1180100 0.0 103210
05:00+4sw118468 0.0 103310
08:00+5ssw257297 0.0 1033106
11:00+10sw3738100 0.0 1031438
14:00+11sw4733100 0.0 1030837
17:00+10ssw264299 0.0 1030466
20:00+7ssw2650100 0.0 1030147
6 october, thu
thu623:00+7s2747100 0.0 1028184
02:00+7s2947100 0.0 1028229
05:00+7s2751100 0.0 1026180
08:00+6se2359100 0.0 102476
11:00+11s3940100 0.0 1021439
14:00+8ssw41176100 1.3 1021605
17:00+8ssw51182100 2.1 10201246
20:00+7ssw2584100 0.3 1019243
7 october, fri
fri723:00+7ssw3108265 0.3 1018528
02:00+6sw388619 0.0 1017412
05:00+5sw279140 0.0 1016239
08:00+3sw279726 0.0 1017171
11:00+6wsw2587100 0.0 1016389
14:00+8sw466988 0.1 10141148
17:00+6wsw3773100 0.2 1014898
20:00+5wsw3880100 0.0 1014507
8 october, sat
sat823:00+5sw41085100 0.1 1013624
02:00+4sw41196100 0.3 10111066
05:00+5w51196100 1.3 10091217
08:00+5w41088100 0.4 1010952
11:00+6w5986100 0.6 10121001
14:00+7wnw5118097 0.4 10131076
17:00+7wnw6128090 0.9 10151320
20:00+6wnw51280100 0.2 10181262